Location: Quedlinburg
(51.7921°N, 11.1414°E)
Time: 15:05:04
(UTC+01:00)

ISS - Visible Passes

Search period start: 17 February 2019 00:00
Search period end: 27 February 2019 00:00
Orbit: 403 x 411 km, 51.6° (Epoch: 17 February)

Date Brightness Start Highest point End Pass type
(mag) Time Alt. Az. Time Alt. Az. Time Alt. Az.
23 Feb -0.9 06:35:00 10° S 06:36:56 15° SE 06:38:52 10° ESE visible
25 Feb -1.8 06:27:21 10° SSW 06:30:09 26° SSE 06:32:57 10° E visible
26 Feb -1.3 05:36:31 10° S 05:38:48 18° SE 05:41:06 10° E visible
